TimeEST,TemperatureF,Dew PointF,Humidity,Sea Level PressureIn,VisibilityMPH,Wind Direction,Wind SpeedMPH,Gust SpeedMPH,PrecipitationIn,Events,Conditions,WindDirDegrees,DateUTC
12:15 AM,32.0,30.2,93,30.10,10.0,NNE,5.8,-,N/A,,Overcast,30,2013-02-11 05:15:00
12:35 AM,32.0,30.2,93,30.09,10.0,North,3.5,-,N/A,,Overcast,0,2013-02-11 05:35:00
12:55 AM,32.0,30.2,93,30.09,10.0,NNE,5.8,-,N/A,,Overcast,30,2013-02-11 05:55:00
1:15 AM,32.0,30.2,93,30.08,10.0,NNE,5.8,-,N/A,,Overcast,30,2013-02-11 06:15:00
1:35 AM,32.0,30.2,93,30.08,10.0,North,8.1,-,N/A,,Overcast,10,2013-02-11 06:35:00
1:55 AM,32.0,30.2,93,30.06,10.0,NNE,6.9,-,N/A,,Overcast,20,2013-02-11 06:55:00
2:15 AM,32.0,30.2,93,30.05,10.0,NNE,8.1,-,N/A,,Overcast,20,2013-02-11 07:15:00
2:35 AM,32.0,30.2,93,30.04,10.0,NNE,8.1,-,N/A,,Overcast,30,2013-02-11 07:35:00
2:55 AM,32.0,30.2,93,30.03,10.0,NNE,10.4,-,N/A,,Overcast,20,2013-02-11 07:55:00
3:15 AM,32.0,30.2,93,30.01,10.0,NNE,6.9,-,N/A,,Overcast,30,2013-02-11 08:15:00
3:35 AM,32.0,32.0,100,30.01,10.0,NNE,9.2,-,N/A,,Overcast,20,2013-02-11 08:35:00
3:55 AM,32.0,32.0,100,30.01,10.0,NNE,4.6,-,N/A,,Overcast,30,2013-02-11 08:55:00
4:15 AM,32.0,32.0,100,29.99,10.0,NE,4.6,-,N/A,,Overcast,50,2013-02-11 09:15:00
4:35 AM,32.0,32.0,100,29.97,10.0,ESE,3.5,-,N/A,,Overcast,110,2013-02-11 09:35:00
4:55 AM,32.0,32.0,100,29.98,10.0,NE,5.8,-,N/A,,Overcast,50,2013-02-11 09:55:00
5:15 AM,32.0,32.0,100,29.98,10.0,NNE,8.1,-,N/A,,Overcast,30,2013-02-11 10:15:00
5:35 AM,32.0,32.0,100,29.99,10.0,NNE,6.9,-,N/A,,Overcast,30,2013-02-11 10:35:00
5:55 AM,32.0,32.0,100,30.00,10.0,Calm,Calm,-,N/A,,Overcast,0,2013-02-11 10:55:00
6:15 AM,32.0,32.0,100,29.98,10.0,ENE,5.8,-,N/A,,Overcast,70,2013-02-11 11:15:00
6:35 AM,32.0,32.0,100,29.99,10.0,North,3.5,-,N/A,,Overcast,10,2013-02-11 11:35:00
7:15 AM,32.0,32.0,100,29.97,10.0,NE,3.5,-,N/A,,Overcast,40,2013-02-11 12:15:00
7:35 AM,33.8,32.0,93,29.97,10.0,NNE,3.5,-,N/A,,Overcast,20,2013-02-11 12:35:00
7:55 AM,33.8,32.0,93,29.97,10.0,Calm,Calm,-,N/A,,Overcast,0,2013-02-11 12:55:00
8:15 AM,33.8,32.0,93,29.97,10.0,NE,4.6,-,N/A,,Overcast,50,2013-02-11 13:15:00
8:35 AM,33.8,32.0,93,29.97,10.0,Calm,Calm,-,N/A,,Overcast,0,2013-02-11 13:35:00
8:55 AM,35.6,32.0,87,29.98,4.0,Calm,Calm,-,N/A,Rain,Light Rain,0,2013-02-11 13:55:00
9:15 AM,35.6,32.0,87,-9999,-9999.0,North,-9999.0,-,N/A,,Unknown,0,2013-02-11 14:15:00
9:35 AM,35.6,32.0,87,-9999,-9999.0,North,-9999.0,-,N/A,,Unknown,0,2013-02-11 14:35:00
10:15 AM,35.6,33.8,93,29.96,3.0,Calm,Calm,-,N/A,,Drizzle,0,2013-02-11 15:15:00
10:35 AM,37.4,35.6,93,29.96,4.0,Calm,Calm,-,N/A,,Light Drizzle,0,2013-02-11 15:35:00
10:55 AM,37.4,35.6,93,29.96,7.0,Calm,Calm,-,0.01,,Overcast,0,2013-02-11 15:55:00
11:15 AM,41.0,37.4,87,29.95,7.0,SSW,4.6,-,N/A,,Overcast,200,2013-02-11 16:15:00
11:35 AM,41.0,39.2,93,29.94,7.0,SSW,4.6,-,N/A,,Overcast,200,2013-02-11 16:35:00
11:55 AM,44.6,41.0,87,29.92,10.0,SSW,5.8,-,N/A,,Scattered Clouds,210,2013-02-11 16:55:00
12:15 PM,46.4,42.8,87,29.92,10.0,SW,8.1,-,N/A,,Mostly Cloudy,220,2013-02-11 17:15:00
12:35 PM,50.0,44.6,82,29.89,10.0,SW,10.4,-,N/A,,Scattered Clouds,220,2013-02-11 17:35:00
12:55 PM,51.8,44.6,76,29.89,10.0,WSW,12.7,-,N/A,,Clear,240,2013-02-11 17:55:00
1:15 PM,53.6,44.6,72,29.88,10.0,SW,12.7,17.3,N/A,,Clear,220,2013-02-11 18:15:00
1:35 PM,53.6,42.8,67,29.87,10.0,WSW,17.3,-,N/A,,Clear,240,2013-02-11 18:35:00
1:55 PM,53.6,41.0,62,29.86,10.0,WSW,12.7,-,N/A,,Clear,240,2013-02-11 18:55:00
2:15 PM,53.6,39.2,58,29.88,10.0,WSW,12.7,20.7,N/A,,Clear,240,2013-02-11 19:15:00
2:35 PM,53.6,37.4,54,29.88,10.0,SW,17.3,20.7,N/A,,Clear,230,2013-02-11 19:35:00
2:55 PM,53.6,33.8,47,29.88,10.0,WSW,18.4,26.5,N/A,,Clear,240,2013-02-11 19:55:00
3:15 PM,53.6,33.8,47,29.87,10.0,WSW,17.3,25.3,N/A,,Scattered Clouds,240,2013-02-11 20:15:00
3:35 PM,53.6,33.8,47,29.87,10.0,WSW,16.1,23.0,N/A,,Scattered Clouds,240,2013-02-11 20:35:00
3:55 PM,51.8,32.0,47,29.86,10.0,SW,13.8,19.6,N/A,,Scattered Clouds,230,2013-02-11 20:55:00
4:15 PM,51.8,32.0,47,29.87,10.0,WSW,10.4,20.7,N/A,,Scattered Clouds,250,2013-02-11 21:15:00
4:35 PM,51.8,32.0,47,29.87,10.0,WSW,12.7,20.7,N/A,,Scattered Clouds,240,2013-02-11 21:35:00
4:55 PM,51.8,32.0,47,29.87,10.0,West,9.2,-,N/A,,Scattered Clouds,260,2013-02-11 21:55:00
5:55 PM,50.0,19.4,30,29.88,10.0,West,12.7,27.6,N/A,,Clear,260,2013-02-11 22:55:00
6:15 PM,50.0,19.4,30,29.88,10.0,West,12.7,23.0,N/A,,Clear,270,2013-02-11 23:15:00
6:35 PM,48.2,19.4,32,29.88,10.0,West,9.2,24.2,N/A,,Clear,260,2013-02-11 23:35:00
6:55 PM,48.2,19.4,32,29.89,10.0,West,12.7,16.1,N/A,,Clear,260,2013-02-11 23:55:00
7:15 PM,46.4,15.8,29,29.89,10.0,WSW,12.7,20.7,N/A,,Clear,250,2013-02-12 00:15:00
7:35 PM,46.4,17.6,32,29.90,10.0,WSW,6.9,-,N/A,,Clear,250,2013-02-12 00:35:00
7:55 PM,44.6,19.4,37,29.90,10.0,WSW,9.2,16.1,N/A,,Clear,240,2013-02-12 00:55:00
8:15 PM,44.6,17.6,34,29.91,10.0,WSW,13.8,21.9,N/A,,Clear,250,2013-02-12 01:15:00
8:55 PM,44.6,14.0,29,29.92,10.0,WSW,11.5,17.3,N/A,,Clear,250,2013-02-12 01:55:00
9:15 PM,42.8,12.2,29,29.93,10.0,WSW,12.7,-,N/A,,Clear,250,2013-02-12 02:15:00
9:35 PM,42.8,12.2,29,29.95,10.0,West,9.2,16.1,N/A,,Clear,280,2013-02-12 02:35:00
9:55 PM,42.8,10.4,27,29.94,10.0,WNW,9.2,18.4,N/A,,Clear,290,2013-02-12 02:55:00
10:15 PM,41.0,10.4,29,29.94,10.0,West,12.7,17.3,N/A,,Clear,280,2013-02-12 03:15:00
10:35 PM,41.0,10.4,29,29.95,10.0,West,6.9,-,N/A,,Clear,280,2013-02-12 03:35:00
10:55 PM,41.0,12.2,31,29.96,10.0,West,13.8,23.0,N/A,,Clear,280,2013-02-12 03:55:00
11:15 PM,39.2,12.2,33,29.96,10.0,West,12.7,21.9,N/A,,Clear,280,2013-02-12 04:15:00
11:35 PM,37.4,14.0,38,29.96,10.0,WNW,6.9,19.6,N/A,,Clear,300,2013-02-12 04:35:00
11:55 PM,37.4,14.0,38,29.98,10.0,WNW,9.2,21.9,N/A,,Clear,300,2013-02-12 04:55:00